Temp
-11 -11 -11 -11 -12 -12 -12 -12 -12 -12 -12 -12 -12 -12 -12 -13 -13 -12 -12 -12 -12 -12 -12 -11 -11 -11 -11 -11 -11 -11 -12 -12 -12 -12 -12 -12 -12 -12 -12 -12 -12 -12
-11 -11 -11 -12 -12 -12 -12 -12 -12 -12 -12 -12 -12 -12 -12 -13 -13 -12 -12 -12 -12 -12 -12 -11 -11 -11 -11 -11 -11 -11 -12 -12 -12 -12 -12 -12 -11 -11 -11 -12 -12 -12
-11 -11 -12 -12 -12 -12 -12 -12 -12 -12 -12 -12 -12 -12 -13 -13 -13 -12 -12 -12 -12 -12 -12 -11 -11 -11 -11 -11 -11 -11 -12 -12 -12 -12 -12 -12 -11 -11 -11 -11 -12 -12
-11 -11 -12 -12 -12 -12 -12 -13 -13 -12 -12 -12 -12 -12 -13 -13 -13 -12 -12 -12 -12 -12 -11 -11 -11 -11 -11 -11 -11 -11 -12 -12 -12 -12 -12 -12 -12 -12 -12 -12 -12 -12
-12 -12 -12 -12 -12 -13 -12 -13 -13 -13 -12 -13 -12 -13 -13 -13 -13 -12 -12 -12 -12 -11 -11 -11 -11 -11 -11 -11 -11 -11 -12 -12 -12 -12 -12 -12 -12 -12 -12 -12 -12 -12
-12 -12 -12 -12 -13 -13 -12 -13 -13 -13 -13 -13 -13 -13 -13 -13 -13 -12 -12 -12 -12 -11 -11 -11 -11 -11 -11 -11 -11 -12 -12 -12 -12 -12 -12 -12 -12 -12 -12 -12 -12 -12
-12 -12 -12 -13 -13 -13 -13 -13 -13 -13 -13 -13 -13 -13 -13 -13 -13 -12 -12 -12 -12 -12 -11 -11 -11 -11 -11 -11 -11 -12 -12 -12 -12 -12 -12 -12 -12 -12 -12 -12 -12 -12
-12 -12 -13 -13 -13 -13 -13 -13 -13 -13 -13 -13 -13 -13 -13 -13 -13 -12 -12 -12 -12 -12 -11 -11 -11 -11 -11 -11 -12 -12 -12 -12 -12 -12 -12 -12 -12 -12 -12 -12 -12 -11
-12 -12 -13 -13 -13 -13 -13 -13 -13 -13 -13 -13 -13 -13 -13 -13 -13 -12 -12 -12 -12 -12 -11 -11 -11 -11 -11 -11 -11 -12 -12 -12 -12 -12 -12 -12 -12 -12 -11 -11 -11 -11
-12 -13 -13 -13 -13 -13 -13 -13 -13 -13 -13 -13 -13 -13 -13 -13 -12 -12 -12 -12 -12 -12 -12 -12 -11 -11 -11 -11 -11 -11 -12 -12 -12 -12 -12 -12 -12 -12 -11 -11 -11 -11
-13 -13 -13 -13 -13 -13 -13 -13 -13 -13 -13 -13 -13 -13 -13 -13 -12 -12 -12 -12 -12 -12 -12 -12 -12 -11 -11 -11 -11 -11 -12 -12 -12 -12 -12 -12 -12 -12 -12 -11 -12 -12
-13 -13 -13 -13 -13 -13 -13 -13 -13 -13 -13 -13 -13 -13 -13 -12 -12 -12 -12 -12 -12 -12 -12 -12 -12 -12 -11 -11 -11 -11 -12 -12 -12 -12 -12 -12 -12 -12 -12 -12 -12 -12
-13 -13 -13 -13 -13 -13 -13 -13 -13 -13 -13 -13 -13 -13 -13 -12 -12 -12 -12 -12 -12 -12 -12 -12 -12 -12 -12 -11 -11 -12 -12 -12 -12 -12 -12 -12 -12 -12 -12 -12 -12 -12
-13 -13 -13 -13 -13 -13 -13 -13 -13 -13 -13 -13 -13 -13 -13 -12 -12 -12 -12 -12 -12 -12 -12 -12 -12 -12 -12 -12 -11 -12 -12 -12 -12 -12 -12 -12 -12 -12 -12 -12 -12 -12
-13 -13 -13 -13 -13 -13 -13 -13 -13 -13 -13 -13 -13 -13 -12 -12 -12 -12 -12 -12 -12 -12 -12 -12 -12 -12 -12 -12 -12 -12 -12 -12 -12 -12 -12 -12 -12 -12 -12 -12 -12 -12
-14 -13 -13 -13 -13 -13 -13 -13 -13 -13 -13 -13 -13 -13 -12 -12 -12 -12 -12 -11 -11 -12 -12 -12 -12 -12 -12 -12 -12 -11 -12 -12 -12 -12 -12 -12 -12 -12 -12 -12 -12 -12
-13 -13 -13 -13 -13 -13 -13 -13 -13 -13 -13 -13 -13 -12 -12 -12 -11 -12 -12 -11 -11 -11 -12 -12 -12 -12 -12 -12 -12 -12 -12 -12 -12 -12 -12 -12 -12 -12 -12 -12 -12 -12
-13 -14 -13 -13 -13 -13 -13 -13 -13 -13 -13 -13 -13 -12 -12 -11 -11 -12 -12 -11 -11 -11 -12 -12 -12 -12 -12 -12 -12 -12 -12 -12 -12 -12 -12 -12 -12 -12 -12 -12 -12 -12
-13 -14 -13 -13 -13 -12 -13 -13 -13 -13 -13 -13 -12 -12 -12 -11 -11 -11 -12 -12 -11 -11 -12 -12 -12 -12 -12 -12 -12 -13 -13 -12 -12 -12 -12 -12 -12 -12 -12 -12 -12 -12
-13 -13 -13 -13 -13 -12 -12 -12 -13 -13 -13 -13 -12 -12 -11 -11 -11 -11 -11 -12 -11 -12 -12 -12 -12 -12 -12 -12 -12 -13 -13 -12 -12 -12 -12 -12 -12 -12 -12 -12 -12 -12
-12 -13 -13 -13 -13 -12 -12 -12 -12 -12 -12 -12 -12 -12 -11 -11 -11 -11 -11 -11 -11 -12 -12 -12 -12 -12 -12 -12 -12 -13 -13 -12 -12 -12 -12 -12 -12 -12 -12 -12 -12 -12
-12 -12 -13 -13 -13 -12 -12 -12 -12 -12 -12 -12 -12 -11 -11 -11 -11 -11 -11 -11 -12 -12 -12 -12 -12 -12 -12 -12 -12 -13 -13 -12 -12 -12 -12 -12 -12 -12 -12 -12 -12 -12
-12 -12 -13 -14 -13 -12 -12 -12 -12 -12 -12 -12 -12 -11 -11 -11 -11 -12 -11 -12 -12 -12 -12 -12 -12 -12 -12 -12 -12 -13 -13 -12 -12 -12 -12 -12 -12 -12 -12 -12 -12 -13
-12 -12 -13 -13 -13 -13 -12 -12 -12 -12 -12 -12 -12 -11 -11 -11 -12 -12 -12 -12 -12 -12 -12 -12 -12 -12 -12 -12 -12 -13 -13 -12 -12 -12 -12 -12 -12 -12 -12 -12 -13 -13
-13 -12 -13 -13 -14 -13 -12 -12 -12 -12 -12 -12 -11 -11 -11 -12 -12 -12 -12 -12 -12 -12 -12 -12 -12 -12 -12 -12 -12 -13 -12 -12 -12 -12 -13 -12 -12 -12 -12 -12 -13 -13
-13 -12 -13 -13 -14 -13 -12 -12 -12 -12 -12 -12 -11 -11 -11 -12 -12 -12 -12 -12 -12 -12 -12 -12 -12 -12 -12 -12 -12 -12 -12 -12 -12 -13 -13 -13 -12 -12 -12 -12 -13 -13
Height
5794 5800 5802 5803 5807 5810 5814 5818 5820 5822 5824 5825 5826 5827 5827 5827 5827 5826 5825 5825 5824 5823 5823 5822 5822 5822 5822 5822 5822 5823 5824 5824 5824 5822 5821 5821 5820 5820 5818 5817 5815 5813
5790 5796 5800 5802 5804 5807 5811 5815 5817 5819 5821 5823 5824 5824 5824 5824 5824 5823 5822 5822 5821 5820 5820 5820 5820 5820 5820 5820 5821 5821 5822 5822 5821 5820 5820 5819 5819 5818 5817 5815 5813 5811
5787 5793 5798 5800 5802 5805 5808 5811 5814 5816 5819 5820 5821 5821 5822 5821 5821 5820 5819 5819 5818 5818 5818 5818 5818 5818 5818 5819 5819 5820 5821 5820 5819 5819 5818 5817 5817 5816 5815 5814 5812 5810
5785 5790 5795 5798 5800 5802 5805 5807 5811 5814 5816 5817 5818 5818 5818 5818 5817 5817 5816 5816 5816 5815 5816 5816 5816 5816 5816 5817 5817 5818 5819 5818 5817 5817 5817 5816 5815 5814 5813 5812 5810 5808
5784 5787 5791 5795 5798 5800 5801 5805 5808 5811 5813 5815 5815 5816 5815 5815 5814 5814 5813 5813 5813 5813 5813 5813 5814 5814 5814 5815 5815 5816 5816 5816 5816 5815 5815 5814 5813 5812 5811 5810 5809 5807
5780 5783 5787 5793 5796 5797 5799 5802 5805 5808 5810 5812 5812 5813 5812 5812 5811 5811 5811 5811 5811 5811 5811 5811 5811 5812 5812 5813 5813 5814 5815 5814 5814 5813 5812 5812 5811 5810 5810 5809 5808 5806
5775 5779 5785 5790 5792 5794 5796 5799 5802 5805 5807 5809 5809 5809 5809 5809 5808 5808 5808 5808 5808 5808 5809 5809 5809 5810 5810 5811 5811 5812 5813 5813 5812 5811 5810 5809 5809 5808 5808 5807 5806 5805
5770 5776 5782 5787 5789 5791 5794 5797 5800 5803 5804 5805 5806 5806 5806 5806 5805 5805 5805 5805 5806 5806 5806 5807 5807 5808 5808 5809 5809 5810 5811 5811 5811 5809 5808 5807 5807 5806 5805 5805 5804 5803
5765 5773 5780 5783 5785 5788 5791 5794 5797 5800 5801 5802 5803 5803 5803 5803 5803 5803 5803 5803 5803 5803 5804 5805 5805 5805 5806 5806 5807 5808 5808 5809 5809 5807 5806 5806 5805 5805 5804 5803 5802 5801
5762 5771 5777 5779 5782 5785 5789 5792 5794 5796 5798 5799 5800 5800 5800 5800 5800 5800 5800 5800 5800 5801 5802 5803 5803 5803 5803 5804 5804 5805 5806 5806 5806 5806 5805 5804 5804 5803 5802 5801 5800 5799
5761 5768 5773 5775 5778 5782 5786 5788 5791 5793 5795 5796 5797 5797 5797 5798 5798 5798 5798 5798 5798 5799 5800 5800 5800 5801 5801 5802 5802 5803 5803 5803 5804 5804 5803 5802 5802 5801 5800 5799 5798 5796
5761 5765 5768 5771 5774 5778 5782 5785 5787 5790 5792 5793 5794 5795 5795 5795 5795 5795 5795 5795 5796 5797 5798 5798 5798 5799 5799 5800 5800 5800 5800 5801 5801 5801 5801 5800 5799 5798 5797 5797 5796 5794
5758 5761 5764 5767 5771 5775 5778 5781 5784 5787 5789 5790 5791 5792 5792 5793 5793 5793 5793 5793 5793 5794 5795 5796 5796 5797 5797 5798 5798 5798 5798 5798 5798 5798 5797 5797 5796 5796 5795 5795 5793 5792
5754 5756 5760 5764 5768 5772 5775 5778 5781 5783 5786 5787 5788 5789 5790 5790 5790 5790 5790 5790 5791 5792 5793 5793 5794 5794 5795 5796 5796 5796 5796 5795 5795 5795 5795 5794 5794 5793 5793 5793 5791 5790
5752 5755 5758 5762 5766 5769 5772 5775 5777 5780 5782 5784 5785 5786 5787 5787 5787 5787 5787 5787 5788 5789 5790 5791 5791 5792 5792 5793 5793 5794 5794 5793 5794 5793 5793 5792 5791 5791 5791 5790 5789 5788
5751 5754 5758 5761 5764 5767 5770 5772 5774 5776 5778 5780 5782 5783 5783 5784 5784 5784 5784 5784 5784 5785 5787 5787 5788 5789 5789 5791 5791 5791 5792 5792 5792 5791 5790 5789 5788 5788 5788 5788 5786 5785
5748 5752 5757 5760 5763 5765 5767 5769 5771 5773 5775 5777 5778 5779 5780 5780 5780 5781 5782 5782 5781 5782 5783 5785 5785 5786 5787 5788 5789 5789 5789 5790 5789 5788 5787 5786 5786 5785 5785 5785 5784 5783
5745 5750 5755 5759 5761 5763 5764 5766 5768 5770 5772 5774 5775 5776 5776 5776 5776 5778 5780 5781 5780 5780 5781 5782 5783 5784 5784 5785 5786 5787 5787 5787 5787 5786 5784 5783 5783 5783 5782 5782 5781 5780
5741 5747 5752 5757 5760 5761 5762 5764 5765 5767 5768 5770 5771 5772 5772 5773 5774 5775 5777 5779 5779 5778 5779 5780 5781 5781 5782 5782 5784 5784 5784 5784 5784 5783 5781 5780 5780 5780 5779 5779 5779 5778
5737 5743 5749 5753 5757 5759 5760 5761 5762 5763 5765 5766 5768 5769 5769 5769 5770 5771 5774 5776 5776 5777 5777 5778 5778 5779 5779 5779 5781 5781 5781 5782 5781 5780 5778 5777 5777 5777 5777 5776 5776 5775
5735 5739 5744 5749 5754 5757 5758 5758 5759 5760 5761 5763 5765 5765 5766 5766 5767 5769 5771 5773 5774 5774 5774 5775 5775 5775 5775 5776 5778 5779 5779 5779 5778 5777 5775 5774 5774 5774 5774 5773 5773 5772
5735 5736 5740 5746 5751 5754 5756 5756 5756 5757 5758 5760 5762 5762 5763 5765 5766 5768 5771 5773 5773 5772 5772 5772 5772 5772 5772 5774 5775 5776 5776 5776 5775 5774 5772 5770 5770 5771 5770 5770 5770 5769
5734 5735 5738 5742 5747 5751 5753 5753 5753 5754 5755 5757 5759 5760 5762 5763 5764 5767 5769 5771 5771 5771 5769 5769 5770 5770 5770 5771 5772 5772 5773 5773 5772 5770 5768 5767 5767 5767 5767 5766 5766 5765
5732 5734 5736 5739 5744 5747 5749 5750 5750 5751 5752 5754 5756 5758 5759 5760 5763 5766 5767 5768 5768 5768 5767 5767 5767 5767 5767 5768 5769 5769 5769 5769 5768 5767 5765 5764 5763 5764 5763 5763 5763 5762
5730 5732 5734 5737 5741 5744 5746 5747 5747 5748 5750 5752 5754 5756 5757 5758 5761 5764 5764 5765 5765 5765 5764 5764 5764 5764 5764 5765 5766 5766 5766 5765 5764 5763 5762 5761 5760 5760 5759 5759 5759 5758
5729 5730 5732 5736 5739 5742 5743 5744 5744 5745 5747 5749 5751 5753 5754 5756 5759 5761 5761 5762 5762 5762 5761 5761 5761 5761 5761 5762 5762 5763 5763 5762 5760 5760 5759 5758 5757 5756 5755 5756 5756 5754
Wind_Speed
41 41 41 39 36 33 33 33 31 29 26 23 20 19 18 18 19 19 18 18 17 16 17 18 18 20 21 22 21 20 18 16 16 16 17 18 17 18 19 21 22 23
44 43 42 40 36 34 33 32 31 29 26 23 21 19 18 18 19 18 18 18 17 16 16 17 18 20 21 22 21 20 17 16 16 17 17 17 17 18 20 22 23 23
46 44 42 40 36 34 33 32 31 28 25 23 20 19 18 18 18 17 17 18 17 16 16 17 19 20 21 22 21 20 18 17 17 17 17 17 18 19 20 22 23 24
47 45 42 40 36 34 33 32 30 28 25 23 21 19 19 18 17 16 17 17 17 16 16 17 18 19 20 21 21 20 18 18 18 17 16 17 18 19 20 21 23 24
47 45 42 41 37 35 34 32 30 27 25 23 21 19 19 18 17 16 16 17 17 16 16 17 18 19 20 21 21 20 19 19 18 17 17 16 17 18 19 20 22 23
50 47 43 41 38 36 34 31 29 27 25 23 21 19 19 18 17 16 16 17 17 17 17 18 19 19 20 20 21 20 19 19 18 18 17 16 17 18 19 20 21 21
51 48 43 42 40 37 33 30 29 27 24 23 21 20 19 18 18 18 17 17 17 17 18 19 19 19 20 20 21 20 19 19 18 18 17 17 18 19 19 20 20 20
51 47 44 44 40 36 33 30 28 26 24 23 21 20 19 19 19 19 18 17 18 18 19 19 19 20 20 21 21 21 20 19 17 17 18 18 18 19 20 21 20 19
51 48 45 43 38 35 32 29 28 26 25 23 22 21 20 20 20 19 18 18 18 19 19 19 20 20 21 21 21 21 21 19 17 17 18 18 19 19 21 21 21 19
51 47 45 41 36 33 30 29 28 26 25 24 22 21 21 20 20 19 18 18 19 20 20 20 21 22 21 22 22 22 21 20 19 18 18 18 19 20 21 21 21 20
49 46 44 38 34 32 30 29 28 26 25 24 22 21 21 20 20 18 18 18 20 21 21 22 23 23 22 22 22 22 21 21 21 19 18 19 20 20 22 22 21 20
46 43 40 36 33 32 30 29 28 27 26 24 22 21 21 20 19 18 18 19 21 22 21 22 24 23 23 22 22 21 21 22 21 20 19 20 21 21 22 22 21 20
44 39 36 35 33 32 31 30 28 27 26 24 22 21 21 20 19 18 19 20 21 22 21 22 24 24 23 22 21 20 21 22 22 21 21 21 22 22 22 22 21 21
39 36 35 35 34 33 32 30 28 27 25 23 21 21 21 20 19 19 20 21 22 22 22 22 23 24 23 22 21 20 21 22 22 22 22 22 23 24 23 23 22 22
34 35 36 36 34 33 31 29 28 26 24 22 21 21 21 20 20 20 21 22 22 23 22 22 23 24 24 22 22 21 21 21 22 22 22 22 23 24 25 24 24 23
36 37 37 36 34 32 30 29 28 26 23 21 21 21 21 21 21 22 23 24 23 23 23 23 25 26 24 23 23 22 21 21 22 22 22 22 23 25 25 25 25 24
39 39 38 36 34 32 30 29 27 25 22 21 21 21 21 22 22 22 24 24 24 23 23 24 26 26 24 23 23 22 21 21 21 21 21 22 24 25 25 26 26 25
40 40 38 36 34 33 31 29 26 23 22 21 21 21 21 22 22 22 24 25 24 22 23 24 25 25 24 24 22 21 21 21 21 21 21 23 24 24 25 26 26 26
41 40 38 36 35 33 31 28 24 23 22 22 21 21 22 22 22 23 24 25 23 22 23 24 24 24 26 25 23 22 22 22 22 21 21 23 24 24 25 26 26 27
43 41 38 36 36 34 30 26 24 24 23 22 20 21 22 22 23 24 24 24 24 23 24 24 25 26 28 28 25 23 23 23 22 21 22 24 25 25 25 26 26 28
43 42 39 37 36 34 29 26 25 24 23 21 20 22 23 24 24 24 24 24 24 24 24 24 25 27 30 30 27 24 23 24 23 22 23 25 26 26 26 26 27 28
41 42 39 37 36 33 29 27 26 24 22 20 21 22 24 23 23 22 23 23 24 24 25 24 25 27 28 27 24 23 23 24 24 23 24 27 27 27 27 28 28 29
39 40 39 37 34 31 29 28 26 23 21 21 22 23 23 23 23 22 21 23 24 25 25 25 25 26 26 24 22 22 25 25 24 24 25 28 28 28 28 29 29 29
39 40 38 35 33 31 30 28 25 23 22 22 23 23 23 24 23 21 21 23 24 25 26 26 25 25 24 23 22 23 25 25 24 24 25 28 29 29 30 30 30 30
37 39 36 33 31 31 30 28 25 22 22 23 23 23 24 25 23 21 22 24 25 27 27 27 26 25 25 24 23 24 25 25 25 25 26 28 30 30 31 31 31 31
34 34 33 31 30 30 29 26 24 22 22 23 23 23 25 26 23 22 24 25 27 28 27 26 26 26 25 24 24 24 25 25 25 25 26 28 30 31 32 32 32 32
Wind_Direction
213 211 213 214 211 206 210 217 222 228 232 238 246 252 258 265 273 276 271 266 267 271 275 281 285 286 285 283 283 285 288 294 299 300 300 303 309 315 316 317 319 321
207 207 212 212 208 207 210 217 223 229 233 240 247 252 258 266 273 272 265 262 264 269 275 281 284 284 284 283 283 285 289 293 295 296 300 304 310 315 318 320 320 321
205 204 210 211 208 208 211 217 224 229 235 242 247 252 258 266 270 266 261 261 263 267 273 278 281 283 284 283 283 285 287 289 293 297 300 303 308 314 319 322 321 321
207 202 207 210 209 209 212 217 224 230 237 243 248 252 259 266 266 261 258 259 261 265 270 274 278 281 282 282 282 284 285 289 294 298 299 303 308 313 319 321 320 320
208 202 206 209 209 210 213 218 224 231 238 243 248 252 260 265 261 259 259 259 260 264 268 272 276 279 279 280 282 284 286 290 296 300 301 304 308 314 319 320 319 319
207 203 205 208 209 212 214 219 225 231 238 243 247 253 260 263 259 257 258 258 259 262 266 270 273 276 277 279 282 284 287 292 297 300 302 306 310 314 318 319 318 318
204 203 204 207 210 212 214 219 225 232 238 242 248 254 261 262 257 254 253 255 259 261 264 268 271 274 276 278 281 285 288 292 297 300 302 305 310 313 316 317 316 318
201 201 204 206 209 211 215 221 226 232 238 242 249 255 260 260 256 253 252 254 257 258 261 266 269 272 273 277 281 286 289 292 297 301 302 305 309 312 314 314 315 319
199 199 203 206 208 211 216 222 227 233 238 242 249 255 258 257 253 252 252 254 255 256 259 263 266 269 270 276 282 286 290 294 299 300 301 304 307 309 311 311 314 320
195 198 202 204 207 211 217 223 228 234 238 243 249 254 257 254 251 250 252 254 255 255 257 260 263 266 269 275 281 286 292 297 299 299 299 301 303 305 307 309 315 321
192 196 199 202 206 211 217 223 229 234 239 244 250 255 256 252 249 250 251 254 255 254 256 259 263 266 269 274 281 287 294 298 298 298 297 298 300 303 305 309 315 320
191 192 196 201 206 211 218 223 228 234 239 245 251 254 253 249 247 249 251 253 253 255 258 261 264 267 269 274 280 287 293 296 297 299 298 298 300 302 304 307 313 317
190 191 195 201 207 212 218 222 228 234 240 246 251 252 249 246 246 248 251 252 254 256 259 263 266 268 271 276 281 287 292 295 298 300 299 299 299 299 302 305 310 314
189 192 197 203 208 212 216 221 228 234 240 247 251 250 247 244 245 247 250 251 254 255 257 261 264 267 272 277 282 286 292 295 298 298 296 296 296 297 299 302 306 311
195 197 202 206 209 212 216 222 228 234 240 246 248 247 245 243 244 247 249 250 251 250 251 255 258 262 269 276 280 285 289 293 295 293 292 293 294 295 297 300 303 307
201 204 208 209 210 213 217 222 229 234 239 244 245 244 242 241 242 245 247 247 247 248 249 251 253 258 266 273 277 281 286 290 291 291 291 292 292 293 296 298 301 304
202 206 211 213 212 213 217 222 228 233 238 242 243 241 239 238 241 247 249 244 243 249 253 251 252 258 265 272 277 281 285 289 290 291 292 292 292 294 295 295 297 299
202 205 211 216 216 215 217 222 226 231 237 239 239 238 236 237 242 249 249 244 245 253 256 254 255 260 266 270 274 280 285 289 290 292 293 293 293 294 294 293 294 296
201 204 210 217 220 219 218 220 224 230 234 235 235 235 233 235 242 246 247 248 252 255 254 254 256 260 264 266 270 277 283 287 289 291 292 292 293 293 292 292 293 294
200 199 205 215 221 222 218 218 222 226 231 232 233 233 231 234 239 241 244 248 251 252 252 253 255 257 260 264 269 276 281 285 287 289 289 290 291 290 291 292 292 293
199 194 199 210 221 223 219 217 219 223 229 232 232 231 232 234 238 241 244 246 247 250 253 254 254 256 259 263 268 274 279 283 285 286 286 287 289 290 292 293 293 293
205 198 197 206 219 223 219 217 218 222 228 231 231 232 233 236 239 243 248 249 249 251 254 256 258 260 261 263 265 270 277 281 282 283 284 286 288 291 293 293 293 294
211 204 197 202 215 221 218 217 218 221 226 228 229 231 234 237 239 242 248 250 248 249 252 257 261 263 263 263 263 268 273 277 279 281 284 286 289 291 293 293 294 295
214 208 200 200 210 215 217 218 218 220 223 225 227 229 233 235 235 240 247 248 247 249 253 257 260 262 262 263 264 267 271 274 277 280 283 286 289 292 293 294 294 294
213 207 198 197 205 211 216 219 218 218 220 223 224 228 232 233 233 239 245 247 250 254 257 259 260 261 263 265 265 267 270 273 277 280 284 287 289 291 292 294 294 294
208 201 193 195 204 211 216 219 218 218 220 221 223 226 230 232 233 238 243 247 251 254 257 259 261 263 266 268 268 269 271 274 278 282 285 287 289 290 292 293 293 293